Temp
18 18 18 19 19 19 20 20 20 20 20 21 21 21 22 22 22 20 19 24 23 23 22 21 21 21 20 18 17 15 17 17 19 17 21 21 22 20 19 20 18 18 19 20 18
16 16 16 16 17 18 19 20 20 20 20 21 21 21 21 22 21 18 24 23 23 23 22 21 19 19 18 18 17 17 16 18 18 17 20 21 21 22 21 21 19 19 18 19 17
14 15 15 15 15 16 16 17 19 20 20 21 21 21 21 22 20 23 24 23 23 22 22 22 20 20 20 18 18 16 18 17 19 18 19 20 19 20 20 20 19 20 20 18 15
13 13 13 14 14 15 16 16 17 18 20 21 21 21 21 21 22 25 24 24 22 21 21 20 19 19 19 19 17 19 17 17 20 19 20 20 18 19 18 23 21 18 19 18 15
13 13 14 14 14 14 14 15 16 17 18 20 21 21 20 20 20 25 24 23 22 21 21 18 19 17 19 17 18 17 17 18 17 17 17 17 18 18 17 19 18 16 16 16 15
13 14 14 14 14 14 14 15 16 17 19 19 20 19 19 18 23 24 23 22 22 20 19 19 18 17 18 18 18 18 18 17 17 18 17 19 20 18 19 18 18 17 18 16 14
14 14 14 14 14 14 15 16 17 19 20 20 20 18 16 19 23 23 21 21 21 20 16 18 20 19 18 19 17 18 18 16 16 17 17 15 17 16 19 18 18 20 17 17 15
14 14 14 14 14 15 16 16 17 19 20 21 20 18 17 20 20 19 19 19 19 19 19 20 19 18 19 18 17 18 17 17 19 15 17 18 20 20 20 18 18 17 19 16 19
14 14 14 14 14 15 16 17 17 16 17 18 16 17 18 19 18 18 18 18 17 17 17 17 18 16 17 15 15 15 16 14 15 16 17 16 17 17 17 17 17 18 19 20 21
14 14 14 14 14 15 16 17 15 14 14 15 15 18 19 19 17 16 17 18 16 15 16 15 12 15 12 15 17 16 14 13 15 19 16 15 15 17 16 17 18 19 19 19 18
13 14 14 14 14 14 16 16 14 14 14 18 18 17 17 17 17 16 17 17 16 15 15 14 14 15 16 14 16 17 15 14 14 16 16 18 17 17 18 16 18 19 20 19 18
13 13 13 13 14 14 15 12 12 11 12 13 12 13 15 17 18 15 16 17 16 15 12 13 14 16 16 14 14 14 14 15 15 16 13 15 17 18 18 19 19 19 19 17 16
14 13 13 13 13 14 13 12 11 10 10 13 13 13 15 16 15 15 15 14 16 13 12 15 17 14 15 15 15 13 14 16 15 13 13 12 15 15 18 15 16 16 16 15 15
13 13 13 13 13 13 12 12 11 10 12 14 16 16 15 15 16 12 13 15 15 15 12 13 14 15 14 15 14 14 14 14 14 14 15 15 16 15 19 18 18 17 16 15 15
13 12 12 13 13 12 13 12 11 10 15 17 16 15 14 15 14 13 13 15 15 14 14 16 14 14 14 15 14 15 16 15 14 13 13 13 13 15 16 17 18 18 19 17 15
11 11 12 12 12 13 13 13 11 15 15 17 16 16 16 15 14 13 14 14 13 14 13 13 13 14 16 14 14 14 14 11 10 12 12 14 14 17 17 20 19 18 19 15 14
11 11 11 12 13 13 13 12 14 14 17 17 17 16 16 16 15 13 14 13 14 16 14 14 13 14 15 16 13 15 14 13 12 10 13 12 13 17 19 19 17 18 15 13 12
11 11 11 11 12 13 12 13 14 15 15 15 16 15 16 16 16 13 13 14 12 14 13 14 17 14 13 15 15 12 14 13 13 13 16 8 14 19 17 17 16 12 12 10 10
12 11 10 11 11 12 12 13 14 13 15 16 15 15 14 14 15 14 12 12 13 12 16 13 13 14 12 14 15 13 13 14 13 11 12 16 15 18 18 15 11 8 5 5 5
10 9 10 12 11 10 11 13 13 14 15 15 14 15 14 14 15 14 14 13 13 12 15 14 13 14 14 14 13 14 14 13 10 11 13 15 16 17 17 9 5 5 4 5 5
8 8 10 10 10 10 11 12 14 14 15 15 14 14 15 14 14 13 13 13 13 14 12 14 13 13 14 12 14 12 12 13 13 11 14 14 15 15 5 4 4 4 4 4 5
7 8 9 10 10 10 11 12 12 13 14 13 14 13 13 13 13 13 13 13 13 13 13 13 12 10 11 13 12 13 13 13 11 12 11 14 13 4 2 3 4 3 4 5 5
6 7 8 9 10 10 11 11 12 12 12 13 13 13 13 12 12 13 13 12 12 12 12 12 10 10 11 12 10 11 11 12 11 9 11 11 12 4 2 3 3 4 4 4 4
4 5 7 8 8 9 10 10 11 12 11 12 12 12 11 11 11 12 12 12 10 11 10 11 9 11 11 12 11 11 11 10 10 11 11 12 11 11 3 2 3 3 3 3 3
2 4 5 7 6 7 8 9 9 9 10 11 11 11 11 10 9 9 10 8 9 9 9 10 9 9 9 10 9 7 7 7 7 8 8 9 8 10 -0 1 2 3 3 3 3
1 2 2 4 5 6 7 7 8 9 9 9 9 9 9 8 9 8 8 8 9 7 7 7 8 5 5 7 7 7 7 8 8 8 7 8 8 1 1 2 2 3 3 2 2
1 2 2 2 3 3 3 6 5 6 4 3 4 5 6 5 4 4 4 4 4 5 5 5 6 5 7 6 5 5 5 7 8 8 7 6 2 -1 -0 1 2 2 2 2 2
Height
836 835 835 834 833 832 831 830 829 828 827 826 825 823 822 819 817 815 814 811 810 812 814 816 819 820 821 824 827 831 849 858 845 848 829 817 817 813 811 812 811 806 802 794 794
836 836 835 834 832 831 830 829 828 827 826 825 823 822 820 817 813 811 808 807 809 811 814 815 819 821 826 827 829 836 852 843 831 829 824 815 816 811 813 811 808 804 795 793 792
836 835 834 834 832 831 829 828 827 825 823 822 821 820 819 817 814 806 805 806 808 811 813 815 818 821 826 828 830 835 838 829 823 820 816 816 814 809 812 811 798 797 790 788 789
835 835 834 833 832 830 828 827 825 823 821 820 819 819 818 817 831 804 804 805 807 810 813 815 819 825 830 831 827 832 826 823 817 814 815 814 811 810 809 787 782 783 784 783 783
835 834 833 832 830 829 827 825 823 821 819 817 816 816 816 818 811 802 802 803 805 808 810 814 819 824 828 830 828 831 824 818 817 816 814 813 807 809 799 785 780 780 780 778 778
834 833 832 831 829 828 826 823 821 818 817 815 814 815 815 822 800 799 799 800 801 803 806 808 812 815 821 824 826 821 820 818 815 812 811 811 798 801 783 781 778 779 771 770 771
833 831 830 829 827 825 823 820 817 814 813 812 811 813 813 804 798 797 797 799 800 801 805 807 808 811 817 819 815 816 820 817 813 805 808 809 810 801 776 782 780 770 770 766 762
831 831 829 828 825 823 820 816 812 809 807 806 807 810 809 794 794 795 797 798 799 802 804 805 808 811 813 813 818 821 824 826 800 806 800 801 801 781 775 779 777 772 763 763 754
830 829 828 827 824 821 817 813 808 806 804 804 807 808 805 792 792 792 795 797 800 803 806 807 810 817 816 826 833 831 831 831 819 796 798 804 800 782 778 780 777 770 762 752 746
828 828 827 826 824 820 816 809 806 805 806 805 808 812 794 792 791 791 793 797 800 805 810 813 821 824 834 832 833 826 834 831 824 793 800 803 798 785 782 777 766 757 750 746 747
826 826 825 824 823 820 814 809 810 809 806 801 800 800 794 792 793 793 793 795 799 806 817 819 828 828 813 815 814 814 821 824 813 801 801 786 783 780 774 772 756 747 741 743 740
824 824 823 822 821 819 817 817 821 824 818 797 794 793 789 790 792 793 794 797 800 809 818 825 826 804 806 813 816 819 822 815 805 795 805 794 781 768 761 754 746 741 739 745 739
821 822 821 821 819 819 818 820 819 820 823 799 791 790 787 788 792 792 794 797 800 812 814 813 803 805 808 812 815 821 819 806 810 806 800 797 778 774 750 751 745 739 745 743 744
819 820 820 819 821 819 818 818 818 818 821 804 791 787 788 787 791 793 795 798 799 802 811 812 801 802 810 808 811 818 802 804 808 811 810 798 781 772 750 749 740 744 744 744 742
816 818 818 817 819 819 820 817 816 817 827 791 790 788 788 792 794 794 795 795 800 803 804 796 802 804 805 798 799 797 794 798 802 810 809 806 813 770 758 751 747 744 740 739 739
815 815 816 817 817 817 816 816 818 824 818 792 788 790 790 791 794 797 796 798 801 802 805 801 798 796 792 793 794 795 799 812 820 814 819 796 797 764 757 743 741 738 735 739 738
811 814 816 814 814 813 817 816 826 823 795 792 789 791 792 790 791 797 799 801 802 801 803 796 797 789 789 792 798 794 804 819 822 837 808 802 802 761 743 739 746 746 754 755 752
809 810 814 815 812 813 816 821 822 796 799 789 790 792 791 790 790 798 800 801 802 796 804 796 785 787 787 785 788 801 797 805 810 808 782 819 786 738 741 743 748 759 764 766 764
804 806 810 810 813 811 818 817 801 798 789 790 793 794 797 795 793 795 803 800 795 796 792 801 791 777 785 778 779 794 799 784 792 800 796 767 764 743 731 752 769 779 781 784 779
801 804 803 803 810 813 812 797 792 786 784 786 795 793 797 795 793 796 795 790 791 791 782 791 793 776 775 779 778 780 779 790 808 802 782 767 755 750 736 775 789 788 789 788 784
798 804 797 799 806 810 805 796 786 783 782 789 788 789 790 794 790 795 793 789 785 783 792 784 785 781 777 781 779 784 784 783 784 788 769 764 752 743 786 792 793 794 792 789 786
797 803 796 801 803 799 794 788 790 782 784 788 785 787 790 791 790 789 787 787 778 781 786 783 784 791 779 768 770 772 771 771 787 773 774 759 758 793 797 791 793 796 792 787 785
798 799 796 796 799 792 788 786 784 782 782 785 784 783 783 787 793 780 776 778 780 782 780 780 788 787 779 770 775 773 772 769 771 782 774 773 754 790 795 790 789 788 787 786 785
800 804 798 796 793 790 791 787 783 778 779 781 780 780 783 783 786 781 780 779 784 781 784 782 784 774 770 766 766 773 774 776 774 767 759 755 756 756 786 790 787 786 784 782 780
802 804 799 795 798 795 796 789 787 789 780 777 779 779 785 784 788 787 784 788 788 785 783 782 777 779 775 771 778 785 786 785 787 779 781 763 766 755 794 792 786 782 781 779 779
803 806 805 802 800 798 795 790 786 783 788 781 788 785 788 789 787 788 789 790 786 790 789 789 778 792 793 777 782 779 776 772 771 769 768 762 753 785 787 786 784 782 779 779 778
802 802 803 805 803 805 802 791 795 792 800 802 801 798 796 799 802 803 805 805 802 798 794 794 787 790 771 781 784 784 774 765 762 756 760 761 779 792 789 784 783 782 779 778 777
Wind_Speed
10 11 11 11 11 12 11 11 11 12 12 12 12 12 13 14 14 9 7 5 5 11 10 11 7 6 4 3 3 3 3 2 5 5 5 2 2 3 1 3 4 6 5 6 5
11 12 13 13 13 13 13 13 12 12 13 13 13 14 15 17 14 9 6 6 5 14 13 12 4 5 3 2 1 4 4 8 5 5 5 3 4 3 2 5 6 6 9 17 10
11 12 13 15 15 15 15 15 15 14 14 14 14 13 13 13 6 4 4 9 10 13 7 7 9 4 2 1 4 4 6 5 5 8 4 4 4 3 3 7 10 9 7 6 10
12 13 14 15 16 16 16 17 17 17 17 16 15 14 11 4 6 2 0 7 11 14 11 9 4 3 3 4 4 3 8 6 4 4 1 4 3 4 8 19 9 10 7 4 8
11 13 14 15 16 18 18 19 20 18 18 17 16 12 4 1 10 10 8 7 13 16 12 6 5 5 4 4 3 4 5 5 5 5 7 6 13 7 13 16 13 9 8 13 10
10 11 12 14 16 17 19 22 21 20 20 19 16 10 2 5 8 10 8 11 15 20 13 11 8 7 4 4 6 3 4 7 4 7 6 7 18 5 8 9 13 7 16 11 11
9 10 12 14 16 18 22 22 23 22 21 19 16 5 3 15 7 9 9 9 14 15 7 9 9 4 5 3 4 2 6 8 6 4 7 7 9 11 18 2 13 19 12 13 11
9 11 13 15 17 19 23 23 25 23 19 14 10 5 7 6 9 12 11 5 8 10 7 6 9 4 4 1 4 2 1 4 4 6 3 8 14 18 9 6 12 13 15 9 17
9 11 13 15 18 21 24 25 21 12 8 1 5 5 8 5 3 5 9 4 8 5 5 8 5 2 1 3 4 2 5 7 9 9 5 8 9 9 5 5 12 15 19 22 22
8 9 12 15 18 22 24 23 6 5 3 6 4 2 5 4 2 4 6 13 5 6 5 5 5 2 3 3 7 8 5 5 6 7 3 7 15 16 13 17 23 22 20 19 16
10 10 12 14 16 23 23 5 6 3 2 5 5 5 4 1 2 3 6 8 5 6 5 2 4 8 15 15 2 4 5 6 8 9 4 23 19 15 15 13 24 23 21 13 14
11 11 11 12 15 17 11 6 2 2 8 9 8 7 7 2 2 2 9 6 5 6 6 4 8 18 3 5 8 6 8 15 7 10 3 12 21 22 20 20 20 21 17 9 11
11 11 10 10 13 5 5 3 1 2 2 8 5 3 2 9 6 6 8 3 4 7 8 8 6 3 5 3 7 3 6 10 9 7 6 8 7 4 6 6 6 8 7 9 11
11 10 10 8 5 4 1 3 1 2 3 7 3 2 2 3 1 2 1 1 1 7 8 6 3 6 4 6 7 7 10 10 5 5 3 6 11 5 7 9 5 6 3 7 8
10 8 8 4 4 2 1 3 1 0 6 4 2 0 1 3 2 3 1 2 3 4 5 7 7 4 4 8 7 10 2 2 2 2 4 2 2 6 3 7 6 5 4 6 6
4 3 6 4 4 6 2 3 1 3 8 4 1 0 1 1 2 2 2 3 2 1 2 6 4 5 7 4 5 5 4 6 4 2 4 8 7 2 4 4 3 6 9 8 17
2 3 6 6 3 4 4 1 2 5 3 3 2 1 1 1 1 2 2 3 5 1 4 1 5 3 2 2 1 3 4 3 3 1 7 1 1 6 7 13 6 9 10 10 11
5 4 5 10 9 7 5 2 10 5 7 0 1 1 4 5 2 3 2 4 6 2 1 3 14 8 5 7 8 7 8 6 7 5 8 3 7 13 8 6 5 11 8 16 19
9 5 5 12 12 14 2 7 6 7 5 0 4 3 3 2 2 2 4 4 4 8 8 5 7 1 5 4 5 4 6 3 2 2 1 9 11 15 14 8 15 17 18 17 16
1 3 6 11 15 8 4 14 7 6 3 3 4 5 5 4 4 2 3 1 4 7 3 3 7 4 3 1 3 5 0 1 2 3 11 8 14 13 15 11 13 16 15 13 12
5 2 2 14 20 3 9 7 8 8 3 5 7 10 13 10 5 4 6 6 5 3 5 3 7 7 3 5 6 0 3 3 3 4 11 13 8 3 7 8 9 9 8 9 11
4 2 1 23 4 3 11 4 4 9 4 4 2 5 10 13 14 11 10 8 3 3 4 5 4 5 10 8 5 5 7 4 4 6 5 11 8 10 9 10 6 3 6 9 12
3 1 2 3 6 9 4 5 5 8 9 4 6 6 2 6 8 9 5 4 4 6 4 2 2 3 5 4 3 3 2 5 2 2 13 11 7 9 7 6 7 5 7 7 8
2 2 2 2 1 2 5 11 11 4 6 7 8 5 6 9 8 10 7 3 2 1 1 3 4 12 14 11 5 9 11 4 5 9 14 14 7 4 7 10 8 7 6 6 9
2 3 2 4 4 5 3 7 5 5 4 3 3 5 3 6 3 5 3 4 4 5 3 3 8 8 13 16 7 3 8 13 13 16 10 17 17 20 2 3 5 7 4 8 9
3 3 2 2 3 2 6 7 15 16 5 15 11 12 6 7 7 11 4 4 8 1 2 2 7 2 6 6 7 13 16 19 20 19 16 19 23 4 4 4 5 6 1 6 9
2 1 3 2 3 4 4 3 1 2 3 5 4 4 3 2 3 2 3 5 4 3 3 3 2 3 16 2 6 9 15 14 15 18 9 15 4 2 3 5 6 5 4 5 8
Wind_Direction
1 359 357 355 353 350 347 343 341 339 337 338 338 340 339 332 320 290 237 245 216 199 174 156 149 133 117 94 97 133 75 215 247 174 248 261 283 187 134 260 213 208 216 241 229
358 358 358 354 350 345 339 333 330 327 324 325 329 334 335 332 321 260 270 219 205 185 171 160 141 131 63 105 91 114 142 221 213 199 226 257 232 240 204 251 248 269 262 251 242
359 355 352 352 349 344 341 337 330 321 315 314 316 325 332 332 341 252 348 188 187 181 179 156 139 108 145 124 198 171 204 217 249 231 233 247 271 211 183 260 235 227 235 222 223
353 352 352 351 348 344 339 334 330 325 312 308 309 318 327 327 300 210 220 180 186 181 152 127 94 121 177 214 183 219 244 213 245 223 256 257 318 231 201 257 251 232 229 214 218
349 349 349 349 347 344 342 335 326 320 313 305 303 314 316 59 248 257 266 215 188 180 174 139 145 146 193 198 155 219 247 240 226 260 257 291 270 239 244 258 274 281 252 249 240
341 345 345 345 345 344 342 336 329 317 308 300 297 306 187 219 247 253 239 193 194 183 175 161 186 195 188 213 179 214 258 269 273 237 240 213 271 156 250 268 290 261 274 264 236
337 343 345 345 344 341 340 334 324 313 306 296 287 279 235 240 246 242 221 207 199 196 154 198 165 139 146 262 210 202 296 313 215 246 226 167 286 239 255 254 273 284 279 288 266
334 340 343 343 340 340 339 333 321 313 307 290 266 175 248 263 258 250 231 187 184 195 207 191 182 128 183 193 3 263 112 296 249 170 232 166 259 272 279 243 269 279 286 267 276
329 337 340 340 340 340 340 331 321 328 343 309 147 160 264 275 259 251 206 178 144 137 108 119 117 155 39 100 10 320 240 221 308 222 142 186 255 260 296 249 274 276 278 281 279
316 329 333 336 339 341 342 328 327 342 43 83 83 27 277 295 146 127 157 148 117 111 64 54 53 114 47 99 241 235 226 247 252 287 191 213 247 278 286 292 280 281 274 274 284
294 304 316 326 333 343 349 344 6 347 21 208 205 229 279 278 162 95 148 129 107 74 153 24 112 214 220 206 162 259 233 253 261 267 291 283 280 276 273 261 273 277 278 286 279
290 296 304 318 329 342 0 69 146 251 305 262 241 264 244 186 311 205 167 145 146 171 116 64 207 223 156 165 230 250 279 271 278 265 174 272 287 283 263 266 258 267 284 297 299
284 292 299 315 326 345 39 87 304 169 224 290 218 216 226 163 218 231 169 146 154 164 191 193 217 122 177 195 246 206 230 267 259 326 254 313 269 252 269 247 260 287 285 284 285
273 280 293 312 312 335 40 358 1 156 319 277 269 300 99 132 296 4 174 135 202 227 159 228 280 185 155 211 172 260 233 249 278 357 279 26 300 215 255 278 295 320 322 303 321
285 276 280 269 293 261 256 345 64 185 293 262 255 199 97 148 155 27 33 45 218 189 128 249 173 163 171 216 155 224 171 248 135 182 340 13 311 272 228 266 303 336 24 326 280
298 274 254 234 233 245 230 352 250 37 247 309 145 324 93 85 79 69 88 61 96 191 282 246 325 183 219 220 193 111 88 47 54 77 294 217 191 32 157 209 326 329 338 13 11
283 280 218 193 201 180 173 113 351 225 341 284 293 36 350 248 101 131 141 183 191 205 236 199 223 249 178 143 26 113 77 318 331 38 225 227 240 239 295 292 354 327 5 10 344
266 273 239 230 217 171 162 85 237 184 226 86 270 1 222 169 201 125 116 274 236 169 183 197 283 182 168 207 194 184 171 176 212 224 259 151 246 267 205 23 318 57 36 23 18
286 268 207 234 220 177 147 224 226 183 195 277 325 277 270 321 204 140 208 243 255 193 225 205 267 24 216 155 159 165 196 252 339 55 317 255 269 297 306 63 49 40 34 18 14
242 181 216 229 207 164 218 230 223 191 134 54 222 223 256 200 182 182 207 203 266 199 139 277 298 202 341 16 228 176 260 218 347 220 241 220 244 256 295 65 34 21 17 14 11
153 173 227 196 170 185 227 237 245 218 203 249 243 274 283 297 228 204 207 241 211 264 225 195 191 259 88 204 208 52 248 238 272 199 263 265 249 263 91 70 54 29 18 13 10
147 171 268 165 181 199 235 207 234 271 319 291 316 237 256 273 277 272 256 212 171 194 214 233 185 196 243 250 207 208 220 180 232 256 254 261 262 93 106 94 72 72 41 24 14
154 205 249 216 220 223 241 254 252 263 241 229 254 255 217 276 288 249 268 336 298 238 236 214 247 295 305 325 39 168 227 216 219 105 248 265 262 145 92 55 26 9 26 21 19
97 138 289 242 216 266 233 261 255 238 264 211 245 237 265 268 246 273 271 292 338 347 171 91 218 240 253 246 284 269 260 236 222 261 264 252 268 277 349 348 1 349 340 347 359
52 213 287 203 266 251 237 274 253 282 262 108 276 232 277 272 280 235 289 14 331 335 309 217 262 247 258 265 278 243 285 281 272 266 257 277 281 282 200 278 296 298 315 334 346
133 136 6 253 310 208 207 242 249 264 246 273 248 289 281 263 259 296 292 229 253 303 279 206 263 207 259 249 235 271 272 263 268 274 267 258 258 128 218 246 285 302 298 325 331
145 97 106 266 172 146 217 224 91 351 93 81 47 324 302 127 91 339 302 303 292 287 229 260 280 217 266 275 317 270 245 260 263 263 270 260 263 189 265 238 252 281 203 273 292